Location: Bothwell
(42.3833°S, 147.0000°E)
Time: 19:27:15
(UTC+11:00)

First-Move - Pass Details

Date: 30 September 2022
Orbit: 570 x 653 km, 97.7° (Epoch: 25 November)

Event Time Altitude Azimuth Distance (km) Brightness Sun altitude
Exits shadow 01:53:42 13° 116° (ESE) 1,875 ? -38.5°
Drops below altitude 10° 01:56:04 10° 147° (SSE) 2,102 ? -38.2°
Enters shadow 03:07:54 -37° 13° (NNE) 8,554 ? -28.6°
